Radiation Dose at Monitoring Post of Fukushima Daini Nuclear Power Station
Date,Time,MP-1(microSv/h),MP-2(microSv/h),MP-3(microSv/h),MP-4(microSv/h),MP-5(microSv/h),MP-6(microSv/h),MP-7(microSv/h),Wind Direction,Wind Velocity(m/s),Rain
2024/02/03,00:00,0.150,0.131,0.212,0.200,0.207,0.119,0.077,north-northwest,1.6,No
2024/02/03,00:10,0.149,0.133,0.212,0.201,0.207,0.119,0.077,northwest,2.3,No
2024/02/03,00:20,0.149,0.132,0.212,0.201,0.208,0.118,0.077,west-northwest,3.6,No
2024/02/03,00:30,0.149,0.133,0.211,0.201,0.206,0.119,0.077,northwest,4.5,No
2024/02/03,00:40,0.150,0.132,0.212,0.201,0.208,0.119,0.077,northwest,3.1,No
2024/02/03,00:50,0.150,0.133,0.212,0.200,0.207,0.119,0.076,northwest,2.9,No
2024/02/03,01:00,0.149,0.133,0.212,0.201,0.206,0.118,0.077,northwest,2.2,No
2024/02/03,01:10,0.150,0.132,0.212,0.201,0.208,0.119,0.077,northwest,2.8,No
2024/02/03,01:20,0.149,0.132,0.212,0.201,0.208,0.119,0.077,northwest,4.0,No
2024/02/03,01:30,0.149,0.133,0.212,0.202,0.207,0.119,0.076,northwest,4.0,No
2024/02/03,01:40,0.149,0.133,0.210,0.201,0.207,0.118,0.077,northwest,3.7,No
2024/02/03,01:50,0.149,0.133,0.211,0.202,0.207,0.119,0.077,northwest,2.9,No
2024/02/03,02:00,0.149,0.132,0.212,0.201,0.208,0.119,0.078,northwest,2.7,No
2024/02/03,02:10,0.148,0.131,0.212,0.202,0.207,0.119,0.077,northwest,2.2,No
2024/02/03,02:20,0.150,0.132,0.211,0.202,0.207,0.118,0.077,northwest,2.5,No
2024/02/03,02:30,0.149,0.133,0.212,0.201,0.206,0.119,0.077,northwest,1.6,No
2024/02/03,02:40,0.148,0.132,0.212,0.202,0.208,0.118,0.077,west,0.6,No
2024/02/03,02:50,0.148,0.132,0.213,0.202,0.207,0.119,0.077,northwest,0.6,No
2024/02/03,03:00,0.149,0.133,0.212,0.201,0.208,0.118,0.077,northwest,0.7,No
2024/02/03,03:10,0.149,0.133,0.212,0.202,0.207,0.118,0.077,northwest,1.7,No
2024/02/03,03:20,0.149,0.132,0.213,0.202,0.207,0.119,0.078,northwest,1.5,No
2024/02/03,03:30,0.149,0.132,0.211,0.201,0.208,0.119,0.077,northwest,0.6,No
2024/02/03,03:40,0.150,0.132,0.211,0.201,0.208,0.119,0.077,-,CALM,No
2024/02/03,03:50,0.150,0.133,0.212,0.200,0.207,0.118,0.077,southwest,0.6,No
2024/02/03,04:00,0.148,0.132,0.212,0.201,0.208,0.118,0.077,west-southwest,0.8,No
2024/02/03,04:10,0.148,0.132,0.212,0.201,0.207,0.119,0.077,west,1.2,No
2024/02/03,04:20,0.148,0.132,0.212,0.201,0.207,0.119,0.076,northwest,0.9,No
2024/02/03,04:30,0.149,0.133,0.212,0.201,0.207,0.119,0.078,north-northwest,1.1,No
2024/02/03,04:40,0.148,0.132,0.213,0.201,0.207,0.118,0.077,northwest,1.7,No
2024/02/03,04:50,0.149,0.132,0.212,0.201,0.207,0.118,0.077,northwest,1.3,No
2024/02/03,05:00,0.149,0.132,0.212,0.201,0.207,0.118,0.077,northwest,1.5,No
2024/02/03,05:10,0.148,0.132,0.212,0.202,0.208,0.118,0.076,northwest,1.2,No
2024/02/03,05:20,0.149,0.133,0.212,0.201,0.207,0.119,0.077,northwest,1.8,No
2024/02/03,05:30,0.149,0.132,0.212,0.200,0.207,0.118,0.078,northwest,2.6,No
2024/02/03,05:40,0.148,0.133,0.211,0.200,0.207,0.119,0.077,northwest,3.7,No
2024/02/03,05:50,0.149,0.133,0.213,0.201,0.205,0.118,0.077,northwest,3.4,No
2024/02/03,06:00,0.149,0.133,0.213,0.201,0.207,0.118,0.076,west-northwest,3.8,No
2024/02/03,06:10,0.149,0.132,0.212,0.201,0.207,0.118,0.077,west-northwest,3.5,No
2024/02/03,06:20,0.149,0.132,0.212,0.201,0.209,0.118,0.077,west-northwest,3.1,No
2024/02/03,06:30,0.149,0.132,0.212,0.201,0.207,0.118,0.077,west-northwest,3.3,No
2024/02/03,06:40,0.148,0.133,0.212,0.201,0.206,0.119,0.076,west-northwest,3.0,No
2024/02/03,06:50,0.148,0.132,0.211,0.202,0.206,0.118,0.076,west-northwest,2.8,No
2024/02/03,07:00,0.148,0.132,0.212,0.201,0.207,0.118,0.077,west-northwest,2.7,No
2024/02/03,07:10,0.149,0.132,0.211,0.200,0.207,0.118,0.077,northwest,2.2,No
2024/02/03,07:20,0.149,0.132,0.212,0.202,0.207,0.119,0.076,west-northwest,1.8,No
2024/02/03,07:30,0.149,0.132,0.213,0.202,0.206,0.118,0.077,west-northwest,2.0,No
2024/02/03,07:40,0.149,0.134,0.212,0.202,0.207,0.119,0.077,west,2.3,No
2024/02/03,07:50,0.148,0.133,0.212,0.200,0.207,0.118,0.077,west,2.0,No
2024/02/03,08:00,0.149,0.133,0.211,0.201,0.207,0.118,0.076,west,0.9,No
2024/02/03,08:10,0.149,0.132,0.212,0.202,0.207,0.118,0.077,west-northwest,0.8,No
2024/02/03,08:20,0.149,0.133,0.211,0.200,0.207,0.119,0.077,west,1.3,No
2024/02/03,08:30,0.148,0.133,0.211,0.201,0.208,0.118,0.077,-,CALM,No
2024/02/03,08:40,0.148,0.132,0.213,0.201,0.207,0.118,0.077,northwest,1.0,No
2024/02/03,08:50,0.148,0.132,0.212,0.201,0.208,0.118,0.076,north-northwest,1.1,No
2024/02/03,09:00,0.148,0.132,0.212,0.201,0.207,0.118,0.076,-,CALM,No
2024/02/03,09:10,0.149,0.133,0.211,0.200,0.208,0.118,0.076,-,CALM,No
2024/02/03,09:20,0.148,0.132,0.211,0.200,0.207,0.117,0.077,north-northwest,0.7,No
2024/02/03,09:30,0.149,0.131,0.212,0.200,0.207,0.118,0.076,-,CALM,No
2024/02/03,09:40,0.149,0.132,0.211,0.201,0.207,0.118,0.077,west-northwest,2.0,No
2024/02/03,09:50,0.148,0.132,0.211,0.200,0.207,0.118,0.076,-,CALM,No
2024/02/03,10:00,0.148,0.131,0.212,0.200,0.207,0.118,0.076,north-northwest,2.3,No
2024/02/03,10:10,0.148,0.131,0.211,0.200,0.207,0.118,0.076,north-northwest,2.6,No
2024/02/03,10:20,0.148,0.132,0.211,0.199,0.207,0.118,0.076,northwest,1.8,No
2024/02/03,10:30,0.148,0.131,0.211,0.200,0.208,0.118,0.076,north-northwest,1.9,No
2024/02/03,10:40,0.148,0.132,0.212,0.201,0.209,0.117,0.077,west-northwest,1.4,No
2024/02/03,10:50,0.148,0.131,0.210,0.201,0.208,0.118,0.076,west-northwest,1.8,No
2024/02/03,11:00,0.147,0.132,0.212,0.201,0.206,0.119,0.076,north-northwest,2.1,No
2024/02/03,11:10,0.149,0.132,0.212,0.201,0.206,0.119,0.077,west-southwest,1.9,No
2024/02/03,11:20,0.148,0.131,0.210,0.202,0.207,0.118,0.077,west,1.4,No
2024/02/03,11:30,0.147,0.131,0.211,0.200,0.208,0.117,0.076,east-northeast,1.3,No
2024/02/03,11:40,0.149,0.132,0.209,0.201,0.206,0.118,0.077,northwest,1.8,No
2024/02/03,11:50,0.147,0.131,0.211,0.201,0.207,0.118,0.077,northwest,2.4,No
2024/02/03,12:00,0.149,0.132,0.211,0.199,0.207,0.118,0.076,west-northwest,1.7,No
2024/02/03,12:10,0.148,0.132,0.212,0.201,0.207,0.119,0.077,west,2.9,No
2024/02/03,12:20,0.148,0.131,0.211,0.201,0.209,0.119,0.077,west-northwest,3.2,No
2024/02/03,12:30,0.148,0.132,0.211,0.201,0.206,0.119,0.077,west,4.9,No
2024/02/03,12:40,0.147,0.132,0.210,0.200,0.209,0.119,0.077,west,3.0,No
2024/02/03,12:50,0.149,0.131,0.210,0.200,0.206,0.118,0.076,west-northwest,5.2,No
2024/02/03,13:00,0.148,0.131,0.211,0.200,0.207,0.119,0.077,west-northwest,5.0,No
2024/02/03,13:10,0.149,0.132,0.212,0.201,0.207,0.118,0.076,west,5.6,No
2024/02/03,13:20,0.149,0.132,0.212,0.200,0.207,0.118,0.076,west-northwest,4.9,No
2024/02/03,13:30,0.148,0.133,0.212,0.201,0.207,0.118,0.076,west,4.0,No
2024/02/03,13:40,0.149,0.133,0.212,0.200,0.207,0.120,0.076,west-northwest,3.9,No
2024/02/03,13:50,0.148,0.132,0.212,0.200,0.208,0.118,0.077,west-northwest,4.6,No
2024/02/03,14:00,0.148,0.133,0.211,0.202,0.207,0.119,0.076,west-northwest,7.0,No
2024/02/03,14:10,0.148,0.132,0.211,0.201,0.208,0.119,0.076,north-northwest,4.9,No
2024/02/03,14:20,0.148,0.131,0.211,0.201,0.209,0.119,0.077,north-northwest,5.0,No
2024/02/03,14:30,0.148,0.132,0.212,0.202,0.208,0.119,0.077,northwest,4.9,No
2024/02/03,14:40,0.148,0.133,0.212,0.201,0.207,0.118,0.076,west-northwest,4.5,No
2024/02/03,14:50,0.148,0.133,0.212,0.201,0.207,0.119,0.076,northwest,5.8,No
2024/02/03,15:00,0.148,0.132,0.212,0.201,0.209,0.119,0.076,west-northwest,5.4,No
2024/02/03,15:10,0.149,0.133,0.211,0.201,0.207,0.119,0.076,northwest,6.2,No
2024/02/03,15:20,0.149,0.132,0.211,0.201,0.208,0.118,0.076,west-northwest,5.8,No
2024/02/03,15:30,0.148,0.132,0.212,0.200,0.208,0.118,0.076,west-northwest,5.4,No
2024/02/03,15:40,0.148,0.133,0.212,0.201,0.207,0.119,0.076,west-northwest,6.4,No
2024/02/03,15:50,0.149,0.133,0.212,0.202,0.208,0.118,0.077,west-northwest,5.2,No
2024/02/03,16:00,0.149,0.131,0.211,0.201,0.207,0.118,0.076,west-northwest,5.8,No
2024/02/03,16:10,0.149,0.132,0.211,0.201,0.207,0.119,0.077,west-northwest,4.3,No
2024/02/03,16:20,0.149,0.132,0.211,0.201,0.209,0.119,0.076,west-northwest,1.8,No
2024/02/03,16:30,0.149,0.132,0.212,0.201,0.208,0.119,0.076,north-northwest,0.8,No
2024/02/03,16:40,0.149,0.132,0.212,0.201,0.208,0.119,0.076,west-northwest,5.1,No
2024/02/03,16:50,0.148,0.133,0.212,0.201,0.207,0.118,0.076,west-northwest,4.5,No
2024/02/03,17:00,0.148,0.133,0.211,0.201,0.207,0.119,0.077,west,6.4,No
2024/02/03,17:10,0.149,0.133,0.211,0.201,0.208,0.119,0.076,west-northwest,6.5,No
2024/02/03,17:20,0.149,0.133,0.212,0.202,0.206,0.118,0.077,west-northwest,6.7,No
2024/02/03,17:30,0.150,0.133,0.213,0.201,0.207,0.118,0.076,west-northwest,6.7,No
2024/02/03,17:40,0.148,0.131,0.212,0.201,0.208,0.118,0.076,west-northwest,7.0,No
2024/02/03,17:50,0.149,0.132,0.212,0.202,0.207,0.119,0.077,west-northwest,6.8,No
2024/02/03,18:00,0.148,0.132,0.211,0.201,0.207,0.119,0.076,west-northwest,6.0,No
2024/02/03,18:10,0.148,0.133,0.213,0.201,0.208,0.119,0.077,west-northwest,6.6,No
2024/02/03,18:20,0.148,0.132,0.212,0.201,0.207,0.119,0.077,west-northwest,7.0,No
2024/02/03,18:30,0.149,0.133,0.213,0.202,0.207,0.118,0.076,west-northwest,7.4,No
2024/02/03,18:40,0.150,0.132,0.212,0.201,0.206,0.118,0.076,west-northwest,7.0,No
2024/02/03,18:50,0.149,0.132,0.211,0.202,0.208,0.119,0.077,west-northwest,7.0,No
2024/02/03,19:00,0.148,0.132,0.212,0.201,0.208,0.119,0.076,west-northwest,5.8,No
2024/02/03,19:10,0.149,0.132,0.211,0.201,0.207,0.118,0.076,northwest,5.0,No
2024/02/03,19:20,0.149,0.132,0.212,0.200,0.208,0.117,0.077,west-northwest,5.3,No
2024/02/03,19:30,0.149,0.133,0.212,0.201,0.207,0.119,0.077,west-northwest,5.1,No
2024/02/03,19:40,0.149,0.133,0.212,0.201,0.207,0.119,0.077,west-northwest,4.3,No
2024/02/03,19:50,0.149,0.133,0.211,0.201,0.207,0.118,0.076,west-northwest,2.5,No
2024/02/03,20:00,0.148,0.132,0.212,0.200,0.207,0.118,0.077,west-northwest,2.0,No
2024/02/03,20:10,0.149,0.133,0.210,0.202,0.207,0.118,0.076,northwest,2.4,No
2024/02/03,20:20,0.150,0.132,0.212,0.202,0.207,0.119,0.077,northwest,2.6,No
2024/02/03,20:30,0.149,0.132,0.212,0.201,0.209,0.118,0.077,northwest,2.7,No
2024/02/03,20:40,0.148,0.132,0.211,0.201,0.208,0.119,0.076,north-northwest,3.9,No
2024/02/03,20:50,0.149,0.132,0.212,0.201,0.207,0.120,0.077,northwest,2.9,No
2024/02/03,21:00,0.149,0.132,0.212,0.201,0.207,0.119,0.077,west-northwest,3.2,No
2024/02/03,21:10,0.149,0.133,0.212,0.201,0.207,0.119,0.077,northwest,2.1,No
2024/02/03,21:20,0.148,0.132,0.212,0.202,0.208,0.118,0.077,north-northwest,1.4,No
2024/02/03,21:30,0.149,0.133,0.212,0.201,0.208,0.118,0.076,north-northwest,2.7,No
2024/02/03,21:40,0.149,0.133,0.211,0.201,0.209,0.119,0.076,north-northwest,3.2,No
2024/02/03,21:50,0.148,0.133,0.213,0.202,0.207,0.119,0.077,northwest,2.4,No
2024/02/03,22:00,0.149,0.133,0.211,0.201,0.207,0.119,0.077,northwest,2.3,No
2024/02/03,22:10,0.149,0.131,0.213,0.201,0.207,0.119,0.077,north-northwest,1.8,No
2024/02/03,22:20,0.150,0.132,0.212,0.201,0.208,0.119,0.077,northwest,2.8,No
2024/02/03,22:30,0.149,0.134,0.212,0.200,0.208,0.119,0.076,northwest,2.7,No
2024/02/03,22:40,0.150,0.132,0.211,0.201,0.207,0.119,0.077,northwest,3.0,No
2024/02/03,22:50,0.149,0.133,0.212,0.201,0.208,0.119,0.077,west-northwest,4.5,No
2024/02/03,23:00,0.149,0.132,0.212,0.201,0.207,0.118,0.077,west-northwest,6.0,No
2024/02/03,23:10,0.149,0.133,0.213,0.201,0.208,0.119,0.077,west-northwest,6.8,No
2024/02/03,23:20,0.150,0.133,0.212,0.203,0.209,0.119,0.076,west-northwest,5.5,No
2024/02/03,23:30,0.148,0.133,0.212,0.202,0.208,0.118,0.077,west-northwest,2.4,No
2024/02/03,23:40,0.149,0.132,0.211,0.201,0.208,0.118,0.077,west-northwest,2.1,No
2024/02/03,23:50,0.149,0.131,0.212,0.202,0.207,0.119,0.076,west-northwest,1.9,No
